Visibility
14.1 2.3 1.2 2.1 13.6 15.0 15.0 15.0 15.0 15.0 15.0 15.0 15.0 9.6 15.0 14.9 13.4 15.0 14.5 15.0 8.6 12.5
1.4 3.8 2.4 3.9 3.1 5.5 15.0 15.0 15.0 15.0 15.0 15.0 15.0 15.0 15.0 9.9 6.3 15.0 11.4 10.1 15.0 15.0
1.5 1.3 3.2 3.4 4.9 6.2 3.0 14.3 15.0 15.0 15.0 15.0 15.0 15.0 15.0 15.0 4.4 15.0 5.3 15.0 15.0 15.0
2.1 3.2 4.6 1.7 3.2 8.9 7.9 12.6 15.0 15.0 15.0 15.0 15.0 15.0 15.0 15.0 15.0 10.1 15.0 15.0 15.0 15.0
6.7 8.5 5.6 4.8 1.4 15.0 15.0 15.0 15.0 15.0 11.2 15.0 15.0 15.0 15.0 15.0 14.7 5.6 14.6 7.8 14.8 15.0
6.1 2.3 3.5 3.8 1.0 0.1 0.3 12.2 14.0 15.0 15.0 15.0 15.0 15.0 15.0 15.0 15.0 15.0 15.0 15.0 15.0 15.0
1.2 0.3 0.3 0.5 1.6 0.1 0.0 0.1 2.9 12.0 11.4 15.0 15.0 15.0 15.0 15.0 15.0 15.0 15.0 15.0 15.0 15.0
0.8 0.6 0.8 0.3 3.1 0.4 0.1 0.0 0.1 0.2 4.0 2.9 10.5 15.0 15.0 15.0 15.0 15.0 15.0 15.0 15.0 15.0
1.0 1.6 2.7 0.2 0.2 0.7 0.1 0.1 0.0 0.0 0.3 8.9 4.2 11.0 15.0 15.0 15.0 15.0 15.0 15.0 15.0 15.0
0.2 0.4 1.9 0.2 0.2 1.1 0.3 0.2 0.1 0.0 0.0 0.1 11.3 5.8 5.0 14.3 15.0 15.0 15.0 15.0 15.0 15.0
0.3 0.4 2.9 0.5 0.3 0.4 0.3 0.1 0.1 0.0 0.0 0.0 0.0 0.1 0.7 6.1 15.0 15.0 15.0 15.0 15.0 15.0
0.4 0.4 0.8 0.6 0.1 0.1 0.1 0.1 0.1 0.0 0.0 0.0 0.0 0.0 0.0 0.1 1.1 2.7 0.1 0.1 2.9 9.3
0.1 0.2 0.2 0.1 0.1 0.1 0.1 0.1 0.1 0.1 0.0 0.0 0.0 0.0 0.0 0.0 0.0 0.1 0.1 0.0 0.1 14.5
0.1 0.1 0.1 0.1 0.1 0.1 0.1 0.1 0.1 0.1 0.1 0.1 0.0 0.0 0.0 0.0 0.0 0.1 0.1 0.0 0.0 0.0